DECAYED
Showing default

EOS-7, 55562 (Decayed)

Orbit data source: Space-Track

EOS-7, 55562 was a payload satellite owned by ISRO (IN) in LEO that was launched on Fri, 10 Feb 2023 UTC via an SSLV launch vehicle from the Sirharikota (SRI). Payload-class satellites include a variety of spacecraft equipped with specific instruments for various scientific and technological missions. These include communications satellites like Starlink; space stations such as the ISS; scientific satellites like the Hubble; Earth observation satellites from companies like Planet Labs, Umbra, and HawkEye 360; GPS; miniature CubeSats for education and research; and military/defense satellites.

Not visible in the next 10 days
Identifier
55562, 2023-019A
Orbit
Decayed
Country
Flag of ININ / IND
Related business
Manufacturer
ISRO SAC/Banga
Mission
Decayed Civil Imaging
Bus & Motor
IMS-1, Unknown motor
Mass
156 kg wet, ~156 kg dry
Launch date (UTC)
2023-02-10 (3 years ago)
Launch vehicle
SSLV
Launch site
Sirharikota (SRI)
Object type
Payload
Rocket body
Debris
Shape & HBR
Box, 0.3 m
Radar Cross Section
0.540 m², Medium (>0.1 m² and < 1m²)

Expand to show TLE details & history
Last TLE update: 1 year ago

TLE from 1 year ago
0 EOS-7
1 55562U 23019A   24363.45300977  .04873498  38898-5  83598-3 0  9991
2 55562  37.1672  46.7039 0002842 101.5126 258.5981 16.31915089106730
Epoch: 2024-12-28T10:52Z
TLE epoch observation values (Epoch: 2024-12-28T10:52:20.044Z)
Latitude
-0.00003°
Longitude
146.21686°
Altitude
186.864 km
Speed
7.796 km/s
True Right ascension
03h 06m 48s
True Declination
0° 00' 00"
Sunlit
Object was in full shadow at epoch
Visualization orbit readout
Latitude
Unknown
Longitude
Unknown
Altitude
Unknown
Speed
Unknown
Apparent Right ascension
Unknown
Apparent Declination
Unknown
Sunlit
N/A
Visualization observer readout
Local Sidereal Time
21:25:58
Azimuth
Unknown
Elevation
Unknown
Doppler factor
Unknown
Orbital elements
Apogee altitude
192.306 km
Perigee altitude
188.572 km
Semi-major axis
6,568.576 km
Eccentricity
0.00028
Inclination
37.1672°
RAAN
46.7039°
Arg. of periapsis
101.5126°
True anomaly
258.56618°
Mean anomaly
258.5981°
Eccentric anomaly
258.58214°
Mean motion
4.07696 °/min
Orbital period
88.3 mins
BSTAR
0.00083598
Loading maneuver chart data...
Computing Atmospheric mass density...
Loading historical data...
Loading historical data...
Loading historical data...
Loading historical data...
Loading historical data...
Loading historical data...
Loading historical data...

Documentation

Showing up to 5 results
|